Precipitable_Water
1.58 1.38 1.31 1.25 1.23 1.23 1.20 1.18 1.13 1.13 1.11 1.16 1.21 1.24 1.26 1.30 1.30 1.31 1.35 1.33 1.37 1.39 1.38 1.38 1.40 1.40 1.35 1.31 1.37 1.44 1.46 1.45 1.53 1.61 1.56 1.57 1.55 1.51 1.62 1.68 1.48 1.50 1.51 1.50 1.47 1.45 1.43 1.36 1.35 1.39 1.40 1.31 1.33 1.36 1.40 1.42 1.44 1.41 1.41 1.36 1.24 1.20 1.11 1.04 0.95 0.96 1.15 1.35 1.29 1.23 1.37 1.36 1.31 1.34 1.25 1.30 1.38 1.39 1.35 1.29 1.29 1.38 1.46 1.50 1.49
1.67 1.58 1.44 1.35 1.26 1.26 1.26 1.25 1.18 1.13 1.08 1.09 1.11 1.18 1.21 1.23 1.29 1.27 1.27 1.29 1.31 1.35 1.36 1.36 1.34 1.37 1.38 1.33 1.29 1.37 1.38 1.39 1.43 1.48 1.53 1.53 1.50 1.52 1.53 1.64 1.55 1.43 1.47 1.45 1.51 1.50 1.48 1.42 1.36 1.36 1.36 1.30 1.30 1.30 1.36 1.41 1.44 1.35 1.29 1.30 1.26 1.24 1.23 1.08 1.01 0.99 0.98 1.21 1.23 1.39 1.35 1.32 1.18 1.44 1.30 1.23 1.17 1.23 1.17 1.23 1.32 1.36 1.47 1.47 1.40
1.88 1.87 1.63 1.47 1.38 1.31 1.33 1.33 1.25 1.15 1.09 1.07 1.06 1.10 1.15 1.16 1.20 1.22 1.21 1.25 1.26 1.29 1.34 1.35 1.32 1.29 1.29 1.34 1.33 1.32 1.38 1.37 1.39 1.40 1.42 1.45 1.42 1.44 1.47 1.53 1.57 1.47 1.40 1.39 1.43 1.49 1.48 1.45 1.41 1.39 1.39 1.30 1.24 1.27 1.37 1.36 1.41 1.41 1.39 1.34 1.25 1.19 1.30 1.24 1.07 0.93 0.90 0.99 1.18 1.20 1.26 1.40 1.30 1.28 1.22 1.18 1.21 1.24 1.21 1.26 1.30 1.28 1.26 1.36 1.45
1.76 1.82 1.89 1.78 1.58 1.51 1.43 1.39 1.34 1.26 1.12 1.07 1.04 1.04 1.10 1.15 1.16 1.14 1.16 1.19 1.19 1.21 1.28 1.30 1.33 1.30 1.25 1.26 1.29 1.27 1.34 1.37 1.37 1.37 1.39 1.42 1.42 1.40 1.45 1.45 1.46 1.47 1.47 1.45 1.42 1.42 1.42 1.44 1.46 1.46 1.40 1.34 1.28 1.23 1.25 1.36 1.35 1.38 1.42 1.41 1.33 1.25 1.27 1.36 1.31 1.15 1.04 0.87 0.99 1.05 1.20 1.16 1.20 1.26 1.17 1.21 1.24 1.23 1.28 1.27 1.25 1.26 1.36 1.32 1.29
1.79 1.86 1.94 1.97 1.83 1.75 1.67 1.54 1.40 1.35 1.23 1.12 1.05 1.04 1.03 1.08 1.14 1.11 1.11 1.10 1.16 1.17 1.17 1.27 1.26 1.25 1.22 1.23 1.22 1.22 1.25 1.31 1.34 1.36 1.35 1.38 1.41 1.42 1.40 1.44 1.47 1.46 1.43 1.43 1.45 1.45 1.43 1.41 1.47 1.47 1.45 1.33 1.31 1.26 1.26 1.23 1.29 1.34 1.32 1.35 1.38 1.38 1.31 1.33 1.34 1.31 1.20 1.05 1.01 1.09 1.11 1.12 1.13 1.13 1.19 1.13 1.20 1.27 1.29 1.23 1.24 1.21 1.22 1.37 1.43
1.84 1.79 1.81 1.73 1.74 1.80 1.85 1.78 1.63 1.45 1.36 1.26 1.17 1.12 1.08 1.04 1.08 1.15 1.12 1.07 1.09 1.20 1.17 1.17 1.22 1.22 1.19 1.19 1.19 1.19 1.20 1.23 1.28 1.32 1.34 1.33 1.36 1.42 1.43 1.42 1.43 1.47 1.49 1.47 1.45 1.46 1.42 1.40 1.41 1.46 1.45 1.37 1.34 1.34 1.34 1.30 1.32 1.27 1.27 1.29 1.28 1.28 1.27 1.27 1.25 1.23 1.19 1.14 1.11 1.06 1.13 1.08 1.05 1.05 1.22 1.32 1.28 1.19 1.21 1.24 1.23 1.24 1.28 1.36 1.43
1.96 1.89 1.87 1.86 1.94 1.96 1.85 1.80 1.79 1.65 1.51 1.41 1.35 1.28 1.21 1.15 1.14 1.19 1.19 1.12 1.04 1.07 1.18 1.16 1.17 1.19 1.18 1.16 1.16 1.17 1.16 1.18 1.20 1.24 1.29 1.31 1.32 1.32 1.37 1.40 1.41 1.44 1.45 1.47 1.50 1.50 1.46 1.44 1.43 1.44 1.43 1.43 1.40 1.40 1.43 1.41 1.41 1.35 1.29 1.27 1.29 1.23 1.19 1.16 1.15 1.13 1.11 1.07 1.09 1.08 1.02 1.07 1.09 1.08 1.26 1.38 1.34 1.29 1.17 1.16 1.19 1.35 1.37 1.29 1.24
1.88 1.86 1.84 1.82 1.79 1.82 1.89 2.01 1.98 1.91 1.79 1.58 1.46 1.42 1.36 1.31 1.26 1.28 1.32 1.23 1.14 1.03 1.05 1.15 1.16 1.15 1.17 1.16 1.17 1.18 1.17 1.14 1.16 1.21 1.23 1.27 1.28 1.28 1.31 1.34 1.33 1.33 1.34 1.37 1.40 1.43 1.46 1.46 1.45 1.47 1.45 1.46 1.45 1.44 1.42 1.43 1.42 1.34 1.38 1.32 1.27 1.23 1.18 1.18 1.17 1.14 1.08 1.05 1.03 1.03 1.08 1.08 1.21 1.30 1.35 1.33 1.22 1.17 1.20 1.21 1.14 1.19 1.29 1.39 1.29
1.92 1.89 1.90 1.89 1.84 1.83 1.91 2.06 2.08 2.09 1.96 1.92 1.71 1.51 1.46 1.39 1.32 1.28 1.32 1.34 1.29 1.20 1.06 1.07 1.17 1.14 1.14 1.16 1.17 1.18 1.19 1.15 1.14 1.14 1.15 1.16 1.19 1.19 1.19 1.20 1.23 1.23 1.24 1.24 1.29 1.33 1.36 1.42 1.49 1.51 1.52 1.50 1.48 1.45 1.44 1.48 1.43 1.35 1.35 1.38 1.34 1.25 1.18 1.16 1.18 1.18 1.15 1.12 1.08 1.10 1.09 1.12 1.16 1.12 1.05 0.95 1.01 1.09 1.29 1.32 1.25 1.28 1.26 1.15 1.12
1.95 1.87 1.88 1.92 1.90 1.85 1.87 1.98 2.08 2.08 2.08 2.00 1.90 1.87 1.71 1.58 1.47 1.34 1.30 1.35 1.36 1.32 1.23 1.11 1.11 1.18 1.14 1.14 1.16 1.16 1.14 1.16 1.15 1.13 1.12 1.10 1.10 1.10 1.12 1.10 1.09 1.10 1.14 1.16 1.19 1.24 1.27 1.30 1.36 1.43 1.46 1.50 1.50 1.47 1.45 1.45 1.46 1.48 1.49 1.47 1.42 1.35 1.28 1.20 1.14 1.12 1.15 1.13 1.10 1.11 1.10 1.09 1.08 1.03 1.03 1.17 1.31 1.37 1.33 1.34 1.23 1.24 1.19 1.10 1.09
2.01 1.97 1.98 2.03 2.02 2.01 2.02 2.01 2.09 2.05 2.01 2.01 1.95 1.87 1.86 1.93 1.76 1.55 1.44 1.36 1.34 1.40 1.35 1.28 1.15 1.17 1.27 1.20 1.13 1.12 1.14 1.11 1.09 1.11 1.10 1.09 1.09 1.07 1.07 1.09 1.07 1.04 1.05 1.07 1.08 1.11 1.18 1.25 1.28 1.28 1.34 1.38 1.42 1.44 1.46 1.45 1.42 1.41 1.41 1.46 1.54 1.50 1.38 1.29 1.21 1.19 1.15 1.13 1.16 1.15 1.09 1.04 1.07 1.11 1.15 1.24 1.29 1.27 1.24 1.24 1.19 1.18 1.10 0.93 0.74
1.99 2.02 2.04 2.05 2.03 1.99 1.98 1.98 2.06 2.08 2.04 2.00 1.97 1.96 2.05 2.09 2.05 2.00 1.83 1.62 1.50 1.43 1.43 1.38 1.33 1.25 1.23 1.30 1.29 1.21 1.17 1.15 1.10 1.06 1.05 1.05 1.06 1.08 1.08 1.05 1.06 1.05 1.04 1.04 1.05 1.04 1.03 1.08 1.16 1.22 1.25 1.28 1.31 1.34 1.36 1.36 1.34 1.33 1.33 1.33 1.34 1.41 1.48 1.43 1.35 1.30 1.26 1.18 1.14 1.13 1.10 1.07 1.11 1.19 1.22 1.23 1.27 1.28 1.27 1.17 1.09 1.02 0.99 0.93 0.87
1.85 1.92 2.01 2.07 2.07 2.07 2.07 2.03 2.04 1.99 2.00 2.05 2.07 2.04 2.01 1.99 2.01 2.02 1.97 2.03 1.91 1.72 1.53 1.47 1.43 1.39 1.28 1.24 1.27 1.33 1.30 1.29 1.27 1.19 1.11 1.05 1.04 1.04 1.05 1.07 1.03 0.99 1.01 1.03 1.03 1.04 1.04 1.02 0.99 1.03 1.10 1.19 1.26 1.32 1.30 1.29 1.30 1.30 1.29 1.28 1.25 1.23 1.24 1.35 1.44 1.40 1.40 1.35 1.27 1.19 1.16 1.13 1.09 1.11 1.17 1.17 1.21 1.03 0.99 0.98 1.01 0.99 0.93 0.82 0.78
1.81 1.85 1.91 1.96 2.02 2.05 2.04 2.06 2.07 2.09 2.12 2.09 2.10 2.07 1.98 1.91 1.88 1.90 2.01 2.07 1.89 1.81 1.82 1.68 1.59 1.55 1.47 1.37 1.30 1.31 1.32 1.35 1.30 1.26 1.23 1.20 1.18 1.14 1.08 1.03 1.04 1.03 0.99 0.98 1.00 1.03 1.04 1.03 1.02 0.99 0.99 0.95 1.03 1.22 1.32 1.29 1.26 1.25 1.26 1.27 1.27 1.27 1.23 1.18 1.18 1.27 1.35 1.30 1.24 1.16 1.24 1.30 1.20 1.23 1.30 1.31 1.18 1.07 1.00 0.96 1.04 1.05 0.98 0.89 0.96
1.70 1.81 1.86 1.92 1.96 1.98 2.00 1.99 2.00 2.06 2.12 2.16 2.15 2.12 2.00 1.97 1.91 1.86 1.81 1.79 1.85 1.94 1.98 1.85 1.79 1.76 1.72 1.61 1.50 1.42 1.34 1.38 1.38 1.34 1.29 1.25 1.24 1.23 1.22 1.15 1.07 1.00 0.99 0.99 0.97 0.97 1.02 1.07 1.05 1.03 1.03 1.01 0.99 0.93 1.04 1.25 1.30 1.29 1.25 1.23 1.23 1.23 1.23 1.22 1.17 1.12 1.10 1.14 1.15 1.14 1.14 1.19 1.18 1.19 1.22 1.27 1.23 1.23 1.20 1.10 1.11 1.14 1.14 1.18 1.14
1.50 1.60 1.70 1.82 1.89 1.94 1.96 1.96 1.95 1.98 1.99 2.05 2.08 2.05 2.03 2.01 1.94 1.92 1.92 1.94 1.98 2.08 2.13 2.03 1.98 1.98 1.95 1.90 1.79 1.66 1.68 1.64 1.54 1.49 1.40 1.34 1.31 1.28 1.26 1.21 1.16 1.09 1.00 0.93 0.94 0.98 1.01 1.01 1.02 1.04 1.05 1.05 1.06 1.03 1.00 1.05 1.16 1.20 1.19 1.19 1.19 1.21 1.20 1.20 1.19 1.16 1.10 1.04 1.02 1.04 1.07 1.09 1.08 1.06 1.07 1.10 1.16 1.24 1.27 1.27 1.30 1.25 1.13 1.00 0.90
1.30 1.41 1.50 1.59 1.71 1.84 1.92 1.92 1.87 1.88 1.90 1.94 1.97 2.00 1.99 2.00 2.03 2.03 1.93 1.95 1.89 1.86 1.93 2.00 1.98 1.93 1.92 1.94 1.90 1.87 1.86 1.85 1.81 1.75 1.70 1.63 1.46 1.36 1.33 1.31 1.28 1.24 1.20 1.15 1.03 0.95 0.95 0.99 1.01 0.99 0.98 1.00 1.06 1.07 1.05 1.02 1.00 1.07 1.16 1.18 1.19 1.20 1.19 1.25 1.25 1.18 1.12 1.08 1.02 0.99 0.99 1.02 1.05 1.08 1.10 1.14 1.16 1.19 1.23 1.23 1.17 1.18 1.08 0.94 0.90
1.15 1.23 1.31 1.39 1.52 1.63 1.75 1.84 1.83 1.85 1.89 1.89 1.93 2.00 2.07 2.08 2.03 2.07 2.02 2.02 1.97 1.90 1.90 1.88 1.89 1.92 1.90 1.89 1.93 1.87 1.81 1.82 1.82 1.81 1.80 1.80 1.75 1.66 1.52 1.42 1.36 1.32 1.29 1.29 1.28 1.24 1.16 1.02 0.95 0.94 0.94 0.95 0.98 1.01 1.06 1.06 0.99 0.95 0.96 0.99 1.03 1.07 1.14 1.27 1.33 1.27 1.20 1.17 1.18 1.19 1.19 1.20 1.20 1.21 1.22 1.21 1.20 1.20 1.13 0.98 1.01 1.08 1.00 0.96 0.84
1.02 1.08 1.15 1.27 1.36 1.47 1.58 1.67 1.71 1.75 1.78 1.86 1.93 1.94 2.01 2.02 2.03 2.01 2.04 2.09 2.12 2.16 2.14 2.05 1.99 1.98 1.93 1.88 1.91 1.92 1.90 1.89 1.87 1.84 1.81 1.79 1.78 1.78 1.76 1.66 1.52 1.44 1.40 1.36 1.38 1.37 1.34 1.32 1.24 1.12 1.01 0.97 0.99 0.99 0.99 1.01 0.99 0.97 0.95 0.94 0.91 0.90 0.97 1.12 1.17 1.15 1.14 1.14 1.15 1.18 1.19 1.21 1.22 1.22 1.22 1.23 1.24 1.25 1.22 1.13 1.09 1.02 0.91 0.87 0.84
0.99 1.04 1.06 1.14 1.23 1.32 1.39 1.44 1.52 1.60 1.68 1.74 1.76 1.85 1.91 1.95 1.96 1.94 1.94 1.99 2.02 2.10 2.16 2.16 2.12 2.07 2.07 2.02 1.99 1.93 1.86 1.91 2.01 1.99 1.92 1.85 1.84 1.83 1.78 1.66 1.55 1.52 1.50 1.46 1.43 1.45 1.45 1.44 1.44 1.40 1.34 1.23 1.12 1.05 1.02 1.01 0.98 0.98 0.99 0.95 0.88 0.82 0.93 1.02 1.06 1.06 1.05 1.06 1.09 1.13 1.13 1.19 1.25 1.29 1.29 1.27 1.26 1.24 1.22 1.19 1.15 1.09 0.98 0.91 0.91
0.99 0.99 1.01 1.01 1.08 1.14 1.22 1.29 1.34 1.48 1.57 1.61 1.66 1.73 1.79 1.80 1.83 1.90 1.93 2.00 2.03 2.03 2.04 2.08 2.11 2.13 2.14 2.13 2.09 2.05 1.99 1.94 2.00 2.02 2.03 2.01 1.98 1.92 1.87 1.82 1.71 1.63 1.59 1.55 1.52 1.48 1.48 1.50 1.52 1.52 1.50 1.47 1.44 1.40 1.33 1.26 1.19 1.12 1.06 0.98 0.91 0.89 0.98 0.99 1.01 1.06 1.06 1.03 1.00 1.06 1.14 1.19 1.23 1.27 1.26 1.25 1.22 1.20 1.20 1.20 1.19 1.16 1.08 0.98 0.90
0.98 1.00 0.96 0.99 1.00 1.01 1.08 1.16 1.23 1.27 1.42 1.51 1.53 1.54 1.63 1.74 1.81 1.80 1.81 1.86 1.91 1.96 1.98 1.98 1.98 2.03 2.12 2.16 2.15 2.14 2.12 2.06 2.01 1.99 1.97 1.97 1.98 1.98 1.91 1.87 1.91 1.89 1.81 1.73 1.66 1.62 1.61 1.65 1.63 1.64 1.61 1.55 1.50 1.45 1.43 1.43 1.44 1.43 1.34 1.23 1.12 1.07 1.02 1.03 1.06 1.06 1.03 1.00 0.99 1.00 1.04 1.14 1.22 1.25 1.26 1.25 1.23 1.22 1.20 1.18 1.18 1.18 1.18 1.13 1.04
0.96 0.95 0.95 0.94 0.96 0.97 1.01 1.03 1.07 1.11 1.22 1.38 1.45 1.42 1.46 1.53 1.61 1.78 1.86 1.89 1.89 1.90 1.93 2.00 2.03 2.04 2.07 2.11 2.17 2.18 2.17 2.16 2.11 2.04 2.00 1.97 1.95 1.94 1.93 1.91 1.95 1.98 1.88 1.77 1.69 1.66 1.68 1.72 1.84 1.83 1.74 1.67 1.57 1.45 1.36 1.35 1.38 1.38 1.38 1.42 1.40 1.31 1.25 1.20 1.15 1.12 1.07 1.02 0.99 0.96 0.97 1.00 1.02 1.07 1.19 1.28 1.36 1.39 1.37 1.35 1.32 1.30 1.30 1.32 1.32
0.90 0.92 0.91 0.91 0.89 0.92 0.94 0.98 0.99 1.06 1.16 1.25 1.24 1.24 1.35 1.46 1.49 1.56 1.71 1.79 1.83 1.83 1.85 1.94 2.01 2.01 2.00 2.04 2.09 2.16 2.21 2.21 2.20 2.15 2.09 2.03 1.98 1.96 1.94 1.90 1.89 1.89 1.92 1.90 1.88 1.82 1.75 1.70 1.66 1.66 1.67 1.68 1.70 1.66 1.58 1.47 1.35 1.28 1.35 1.43 1.47 1.49 1.46 1.39 1.32 1.23 1.17 1.10 1.03 0.98 0.94 0.97 1.04 1.08 1.13 1.21 1.28 1.35 1.40 1.44 1.44 1.44 1.37 1.35 1.34
0.83 0.82 0.84 0.86 0.87 0.86 0.87 0.90 0.98 1.06 1.03 1.00 1.04 1.15 1.25 1.37 1.42 1.50 1.55 1.61 1.71 1.80 1.91 2.02 2.04 2.05 2.03 2.04 2.08 2.12 2.19 2.24 2.21 2.19 2.15 2.12 2.07 2.02 1.97 1.95 1.93 1.92 1.85 1.83 1.88 1.92 1.89 1.81 1.77 1.71 1.66 1.69 1.72 1.72 1.69 1.64 1.52 1.34 1.29 1.38 1.46 1.50 1.51 1.48 1.43 1.39 1.28 1.19 1.14 1.10 1.07 1.06 1.06 1.07 1.16 1.27 1.34 1.37 1.32 1.29 1.30 1.34 1.42 1.40 1.35
0.75 0.76 0.76 0.78 0.80 0.81 0.79 0.84 0.92 0.97 0.92 0.98 1.03 1.13 1.15 1.19 1.26 1.39 1.49 1.52 1.56 1.61 1.67 1.74 1.83 1.88 1.94 2.04 2.11 2.15 2.21 2.22 2.22 2.23 2.21 2.16 2.12 2.08 2.05 2.02 1.98 1.97 1.92 1.86 1.88 1.90 1.89 1.87 1.82 1.78 1.74 1.70 1.69 1.66 1.68 1.79 1.83 1.65 1.42 1.40 1.44 1.46 1.50 1.50 1.48 1.43 1.35 1.32 1.28 1.21 1.17 1.17 1.15 1.15 1.18 1.19 1.17 1.15 1.19 1.21 1.24 1.24 1.27 1.31 1.31
0.69 0.69 0.70 0.70 0.70 0.72 0.77 0.80 0.85 0.88 0.93 0.91 0.88 0.86 0.92 1.02 1.12 1.23 1.32 1.38 1.42 1.41 1.40 1.45 1.54 1.67 1.76 1.82 1.92 2.04 2.15 2.19 2.24 2.22 2.23 2.18 2.13 2.11 2.07 2.04 2.02 1.98 1.94 1.91 1.89 1.86 1.84 1.84 1.82 1.77 1.74 1.75 1.71 1.66 1.67 1.77 1.80 1.75 1.59 1.43 1.36 1.38 1.46 1.49 1.49 1.47 1.44 1.41 1.36 1.33 1.32 1.31 1.32 1.27 1.17 1.14 1.09 1.08 1.13 1.12 1.12 1.13 1.21 1.27 1.27
0.65 0.67 0.68 0.69 0.69 0.68 0.69 0.77 0.81 0.81 0.81 0.83 0.83 0.85 0.89 0.94 0.99 1.01 1.05 1.15 1.23 1.29 1.30 1.32 1.38 1.45 1.52 1.64 1.73 1.82 1.88 2.03 2.14 2.17 2.18 2.17 2.15 2.15 2.11 2.06 2.02 1.98 1.92 1.88 1.87 1.86 1.85 1.84 1.81 1.75 1.67 1.67 1.70 1.71 1.72 1.75 1.75 1.74 1.69 1.55 1.35 1.34 1.43 1.52 1.56 1.55 1.53 1.54 1.50 1.48 1.44 1.40 1.31 1.25 1.24 1.20 1.17 1.18 1.24 1.23 1.19 1.17 1.20 1.22 1.19
0.68 0.67 0.70 0.71 0.68 0.67 0.71 0.73 0.74 0.73 0.75 0.79 0.84 0.85 0.84 0.86 0.89 0.92 0.99 1.06 1.11 1.15 1.19 1.27 1.34 1.38 1.44 1.53 1.60 1.65 1.76 1.82 1.98 2.19 2.22 2.23 2.19 2.13 2.09 2.08 2.06 2.02 1.99 1.96 1.91 1.88 1.85 1.79 1.73 1.68 1.60 1.52 1.55 1.59 1.66 1.73 1.75 1.77 1.73 1.59 1.45 1.40 1.42 1.46 1.44 1.46 1.55 1.60 1.56 1.55 1.51 1.50 1.44 1.42 1.37 1.32 1.30 1.33 1.39 1.36 1.37 1.33 1.33 1.33 1.24
0.65 0.66 0.69 0.70 0.68 0.70 0.71 0.70 0.69 0.70 0.70 0.71 0.72 0.77 0.86 0.85 0.85 0.86 0.91 1.00 1.04 1.10 1.17 1.19 1.26 1.34 1.36 1.43 1.53 1.55 1.61 1.74 1.86 1.90 1.99 2.06 2.11 2.11 2.12 2.12 2.10 2.05 2.02 2.03 2.00 1.88 1.83 1.76 1.70 1.63 1.59 1.54 1.49 1.49 1.52 1.59 1.66 1.69 1.62 1.52 1.46 1.42 1.41 1.45 1.48 1.52 1.62 1.64 1.63 1.61 1.56 1.55 1.50 1.47 1.43 1.37 1.36 1.41 1.46 1.45 1.42 1.47 1.42 1.38 1.32
0.69 0.70 0.71 0.71 0.73 0.75 0.72 0.69 0.69 0.68 0.69 0.69 0.71 0.69 0.69 0.76 0.82 0.85 0.89 0.94 1.00 1.02 1.05 1.08 1.15 1.24 1.32 1.32 1.41 1.52 1.58 1.65 1.72 1.78 1.80 1.83 1.90 1.98 2.01 2.00 1.97 1.96 1.97 1.93 1.87 1.84 1.85 1.77 1.70 1.68 1.66 1.63 1.54 1.48 1.52 1.55 1.59 1.62 1.63 1.65 1.64 1.60 1.54 1.43 1.36 1.39 1.43 1.53 1.64 1.61 1.60 1.56 1.50 1.49 1.45 1.41 1.38 1.39 1.44 1.49 1.49 1.50 1.47 1.43 1.37
0.74 0.74 0.75 0.77 0.79 0.76 0.73 0.70 0.69 0.69 0.66 0.67 0.69 0.69 0.68 0.65 0.68 0.77 0.83 0.88 0.93 0.96 0.97 1.01 1.06 1.14 1.23 1.30 1.32 1.34 1.42 1.51 1.60 1.66 1.71 1.75 1.77 1.83 1.88 1.92 1.93 1.92 1.93 1.92 1.77 1.76 1.85 1.80 1.75 1.74 1.74 1.66 1.59 1.56 1.55 1.55 1.59 1.58 1.58 1.60 1.62 1.71 1.72 1.64 1.64 1.57 1.48 1.51 1.63 1.66 1.65 1.60 1.54 1.50 1.48 1.45 1.45 1.44 1.44 1.43 1.44 1.43 1.44 1.46 1.43
0.75 0.79 0.81 0.82 0.80 0.77 0.75 0.74 0.73 0.71 0.69 0.67 0.69 0.70 0.67 0.63 0.61 0.62 0.72 0.81 0.85 0.90 0.95 0.98 1.01 1.05 1.14 1.22 1.30 1.33 1.31 1.38 1.51 1.57 1.62 1.67 1.72 1.76 1.79 1.82 1.88 1.93 1.90 1.80 1.72 1.69 1.77 1.79 1.74 1.75 1.75 1.69 1.69 1.66 1.66 1.64 1.63 1.61 1.57 1.56 1.59 1.66 1.71 1.71 1.74 1.67 1.58 1.52 1.62 1.73 1.80 1.74 1.66 1.58 1.53 1.49 1.46 1.40 1.41 1.40 1.42 1.45 1.45 1.42 1.43
0.75 0.76 0.79 0.81 0.81 0.79 0.78 0.76 0.75 0.74 0.75 0.74 0.73 0.70 0.68 0.65 0.63 0.63 0.60 0.62 0.69 0.83 0.93 0.98 1.00 1.03 1.07 1.13 1.17 1.23 1.28 1.30 1.34 1.42 1.52 1.58 1.64 1.71 1.72 1.74 1.79 1.81 1.81 1.75 1.70 1.66 1.72 1.76 1.74 1.73 1.74 1.75 1.75 1.76 1.73 1.72 1.68 1.62 1.56 1.56 1.62 1.71 1.75 1.79 1.75 1.68 1.61 1.61 1.64 1.72 1.91 1.93 1.87 1.77 1.68 1.65 1.63 1.59 1.53 1.51 1.53 1.51 1.49 1.49 1.47
0.79 0.81 0.83 0.83 0.81 0.79 0.78 0.77 0.77 0.77 0.76 0.72 0.68 0.65 0.63 0.62 0.61 0.58 0.58 0.59 0.62 0.65 0.76 0.88 0.99 1.02 0.99 0.99 1.05 1.10 1.18 1.24 1.26 1.27 1.33 1.43 1.52 1.62 1.67 1.66 1.63 1.67 1.69 1.72 1.72 1.68 1.68 1.70 1.71 1.72 1.73 1.72 1.73 1.74 1.71 1.69 1.64 1.56 1.53 1.54 1.62 1.74 1.76 1.72 1.70 1.70 1.69 1.68 1.70 1.79 1.96 1.94 1.90 1.83 1.74 1.67 1.63 1.59 1.56 1.57 1.58 1.58 1.54 1.54 1.54
0.80 0.81 0.81 0.80 0.79 0.79 0.78 0.77 0.78 0.77 0.76 0.73 0.71 0.67 0.65 0.63 0.60 0.59 0.61 0.65 0.67 0.69 0.73 0.82 0.90 0.95 0.97 0.97 1.00 1.07 1.11 1.13 1.18 1.20 1.19 1.21 1.29 1.39 1.42 1.48 1.52 1.54 1.57 1.62 1.70 1.71 1.71 1.72 1.74 1.74 1.77 1.77 1.77 1.77 1.77 1.75 1.67 1.57 1.55 1.57 1.62 1.74 1.77 1.70 1.66 1.69 1.70 1.70 1.78 1.95 2.06 1.98 1.93 1.84 1.79 1.74 1.69 1.63 1.62 1.62 1.63 1.64 1.63 1.60 1.60
0.76 0.77 0.78 0.79 0.79 0.78 0.78 0.77 0.75 0.75 0.73 0.72 0.70 0.69 0.69 0.67 0.66 0.65 0.66 0.67 0.69 0.72 0.73 0.75 0.81 0.89 0.97 0.98 1.05 1.05 1.03 1.04 1.06 1.08 1.11 1.11 1.17 1.25 1.30 1.40 1.48 1.53 1.52 1.55 1.62 1.66 1.66 1.70 1.73 1.74 1.77 1.79 1.81 1.86 1.90 1.87 1.86 1.79 1.70 1.65 1.67 1.71 1.73 1.74 1.72 1.70 1.71 1.77 1.89 2.01 2.02 1.95 1.92 1.89 1.85 1.77 1.76 1.77 1.75 1.75 1.74 1.71 1.68 1.64 1.62
0.72 0.73 0.74 0.76 0.75 0.74 0.73 0.72 0.73 0.72 0.72 0.72 0.73 0.73 0.71 0.69 0.68 0.67 0.66 0.66 0.68 0.69 0.70 0.74 0.76 0.78 0.81 0.90 1.01 0.96 0.94 0.97 0.97 0.98 1.01 1.05 1.08 1.10 1.17 1.28 1.40 1.50 1.55 1.58 1.63 1.70 1.69 1.70 1.75 1.73 1.75 1.81 1.82 1.82 1.84 1.89 1.89 1.88 1.86 1.81 1.72 1.70 1.76 1.82 1.81 1.78 1.82 2.06 2.19 2.09 2.07 2.02 1.98 1.94 1.95 1.92 1.88 1.88 1.88 1.86 1.82 1.78 1.77 1.76 1.73
0.68 0.69 0.70 0.72 0.71 0.71 0.71 0.70 0.71 0.71 0.71 0.72 0.72 0.72 0.70 0.69 0.68 0.68 0.68 0.68 0.68 0.69 0.72 0.73 0.73 0.74 0.78 0.89 0.90 0.94 0.89 0.85 0.85 0.85 0.90 0.96 1.03 1.09 1.13 1.17 1.26 1.38 1.52 1.60 1.65 1.70 1.74 1.73 1.76 1.79 1.79 1.84 1.89 1.95 1.97 1.95 1.98 1.97 1.97 1.96 1.97 1.94 1.89 1.89 1.92 1.98 2.10 2.23 2.29 2.18 2.15 2.14 2.14 2.12 2.06 2.01 1.94 1.87 1.93 1.95 1.93 1.92 1.83 1.81 1.85
0.65 0.66 0.67 0.68 0.68 0.68 0.68 0.68 0.69 0.68 0.70 0.70 0.71 0.72 0.71 0.71 0.71 0.70 0.70 0.68 0.66 0.67 0.68 0.69 0.71 0.75 0.82 0.82 0.83 0.85 0.82 0.81 0.82 0.84 0.87 0.91 0.97 1.04 1.10 1.13 1.15 1.18 1.22 1.31 1.42 1.50 1.60 1.67 1.69 1.65 1.65 1.71 1.82 1.90 1.98 2.05 2.07 2.08 2.08 2.05 2.01 1.87 1.79 1.86 1.91 1.88 1.88 2.00 2.14 2.13 2.15 2.16 2.03 1.95 1.92 1.78 1.68 1.69 1.74 1.80 1.84 1.85 1.90 1.92 1.85
0.64 0.65 0.66 0.66 0.67 0.67 0.68 0.68 0.68 0.69 0.71 0.72 0.73 0.73 0.72 0.72 0.73 0.73 0.72 0.70 0.68 0.67 0.67 0.69 0.71 0.78 0.81 0.79 0.79 0.81 0.81 0.81 0.82 0.85 0.88 0.92 0.96 0.99 1.01 1.05 1.10 1.14 1.16 1.18 1.24 1.31 1.40 1.48 1.56 1.59 1.62 1.65 1.71 1.78 1.85 1.90 1.93 1.94 1.96 1.99 1.99 1.98 1.96 1.93 1.93 1.94 1.96 2.03 2.12 2.08 2.06 2.01 1.96 1.87 1.73 1.81 1.89 1.87 1.86 1.90 1.99 1.99 2.02 2.07 2.08
0.61 0.62 0.62 0.63 0.65 0.66 0.67 0.67 0.69 0.71 0.71 0.72 0.72 0.72 0.72 0.73 0.74 0.75 0.74 0.72 0.70 0.68 0.67 0.68 0.72 0.77 0.81 0.79 0.77 0.77 0.78 0.80 0.83 0.86 0.89 0.92 0.93 0.94 0.97 0.99 1.04 1.07 1.09 1.12 1.15 1.19 1.24 1.31 1.39 1.46 1.51 1.55 1.61 1.66 1.68 1.70 1.76 1.80 1.81 1.83 1.83 1.84 1.85 1.85 1.90 2.00 2.03 1.98 1.96 1.93 1.97 2.00 1.94 1.85 1.82 1.81 1.86 1.90 1.93 1.93 1.98 1.85 1.80 1.83 1.90
0.59 0.60 0.60 0.62 0.63 0.63 0.64 0.66 0.68 0.68 0.69 0.70 0.71 0.73 0.74 0.74 0.74 0.75 0.74 0.73 0.71 0.69 0.68 0.68 0.71 0.76 0.79 0.79 0.76 0.75 0.75 0.77 0.80 0.83 0.86 0.88 0.90 0.92 0.94 0.96 0.98 1.00 1.02 1.07 1.13 1.16 1.18 1.21 1.28 1.36 1.42 1.47 1.51 1.54 1.57 1.62 1.66 1.67 1.68 1.72 1.76 1.77 1.77 1.80 1.86 1.90 1.88 1.87 1.80 1.75 1.77 1.79 1.81 1.78 1.78 1.81 1.83 1.85 1.84 1.87 1.95 1.87 1.82 1.89 1.95
0.57 0.57 0.58 0.59 0.60 0.62 0.63 0.65 0.66 0.68 0.69 0.71 0.73 0.73 0.73 0.73 0.74 0.75 0.74 0.74 0.73 0.73 0.72 0.71 0.71 0.73 0.74 0.76 0.76 0.74 0.72 0.73 0.75 0.78 0.82 0.85 0.88 0.89 0.92 0.94 0.95 0.97 0.98 1.00 1.04 1.09 1.13 1.16 1.20 1.29 1.38 1.41 1.48 1.52 1.52 1.53 1.55 1.54 1.54 1.56 1.61 1.64 1.66 1.68 1.68 1.67 1.70 1.72 1.73 1.69 1.64 1.62 1.61 1.70 1.75 1.80 1.84 1.87 1.90 1.91 1.89 1.87 1.86 1.95 1.93
0.55 0.55 0.55 0.55 0.56 0.57 0.59 0.63 0.65 0.66 0.68 0.69 0.70 0.71 0.73 0.74 0.74 0.74 0.75 0.75 0.74 0.74 0.73 0.73 0.73 0.71 0.71 0.72 0.73 0.71 0.70 0.70 0.73 0.76 0.78 0.82 0.85 0.88 0.91 0.92 0.93 0.94 0.95 0.96 0.99 1.02 1.05 1.08 1.12 1.19 1.25 1.34 1.41 1.45 1.48 1.51 1.51 1.49 1.48 1.47 1.45 1.47 1.52 1.58 1.60 1.60 1.59 1.58 1.60 1.59 1.58 1.58 1.56 1.58 1.63 1.74 1.85 1.89 1.87 1.84 1.83 1.78 1.74 1.72 1.74
0.54 0.54 0.53 0.53 0.54 0.56 0.58 0.61 0.64 0.65 0.66 0.66 0.67 0.68 0.71 0.74 0.75 0.75 0.75 0.75 0.74 0.74 0.73 0.73 0.72 0.71 0.70 0.71 0.71 0.70 0.69 0.69 0.71 0.75 0.77 0.79 0.82 0.86 0.90 0.92 0.93 0.94 0.95 0.96 0.98 0.99 1.01 1.03 1.06 1.09 1.14 1.21 1.30 1.35 1.38 1.41 1.45 1.46 1.46 1.46 1.43 1.41 1.42 1.44 1.46 1.46 1.46 1.47 1.47 1.50 1.53 1.56 1.57 1.57 1.56 1.57 1.62 1.68 1.73 1.75 1.71 1.71 1.79 1.79 1.78
0.51 0.51 0.53 0.53 0.54 0.56 0.58 0.60 0.61 0.62 0.64 0.66 0.67 0.68 0.69 0.71 0.73 0.74 0.74 0.74 0.74 0.74 0.73 0.73 0.71 0.70 0.70 0.70 0.69 0.68 0.69 0.69 0.71 0.74 0.76 0.78 0.79 0.82 0.86 0.90 0.93 0.94 0.95 0.97 0.98 0.97 0.98 1.00 1.02 1.04 1.08 1.12 1.18 1.24 1.27 1.30 1.34 1.37 1.39 1.41 1.41 1.41 1.40 1.42 1.43 1.45 1.45 1.45 1.44 1.42 1.43 1.43 1.45 1.48 1.49 1.51 1.50 1.51 1.55 1.55 1.53 1.50 1.52 1.55 1.59
0.48 0.51 0.53 0.54 0.56 0.56 0.58 0.58 0.59 0.62 0.63 0.65 0.67 0.69 0.70 0.71 0.71 0.72 0.72 0.73 0.73 0.74 0.74 0.73 0.72 0.71 0.70 0.69 0.70 0.70 0.70 0.70 0.72 0.74 0.76 0.77 0.78 0.79 0.83 0.87 0.90 0.92 0.94 0.96 0.97 0.96 0.96 0.98 0.99 1.01 1.03 1.07 1.10 1.14 1.20 1.24 1.25 1.27 1.29 1.33 1.35 1.36 1.38 1.40 1.41 1.43 1.45 1.45 1.43 1.41 1.40 1.38 1.37 1.37 1.38 1.38 1.37 1.38 1.39 1.40 1.44 1.44 1.43 1.44 1.46
0.50 0.51 0.52 0.54 0.56 0.57 0.58 0.58 0.60 0.60 0.62 0.64 0.65 0.66 0.67 0.68 0.69 0.70 0.71 0.72 0.73 0.74 0.74 0.73 0.72 0.71 0.70 0.69 0.69 0.70 0.71 0.71 0.72 0.73 0.74 0.76 0.78 0.79 0.81 0.83 0.87 0.91 0.92 0.93 0.95 0.97 0.96 0.97 0.98 0.99 1.00 1.02 1.05 1.08 1.13 1.17 1.18 1.18 1.19 1.23 1.26 1.29 1.32 1.35 1.36 1.39 1.41 1.43 1.44 1.44 1.44 1.44 1.43 1.41 1.41 1.40 1.39 1.39 1.38 1.38 1.40 1.38 1.37 1.39 1.42
0.51 0.52 0.53 0.54 0.56 0.57 0.60 0.60 0.60 0.61 0.62 0.63 0.63 0.64 0.66 0.67 0.67 0.68 0.69 0.71 0.72 0.73 0.74 0.74 0.72 0.71 0.70 0.69 0.68 0.70 0.71 0.72 0.72 0.73 0.73 0.74 0.77 0.80 0.81 0.82 0.84 0.87 0.90 0.93 0.95 0.98 0.98 0.98 0.98 0.99 0.98 0.99 1.01 1.04 1.08 1.12 1.15 1.15 1.17 1.19 1.22 1.26 1.30 1.34 1.37 1.39 1.40 1.41 1.41 1.42 1.42 1.42 1.43 1.43 1.42 1.41 1.42 1.40 1.37 1.37 1.39 1.41 1.40 1.37 1.36
0.50 0.51 0.52 0.53 0.55 0.56 0.57 0.57 0.58 0.59 0.60 0.61 0.62 0.63 0.64 0.65 0.66 0.68 0.69 0.69 0.70 0.71 0.73 0.73 0.73 0.73 0.73 0.72 0.71 0.70 0.72 0.73 0.75 0.75 0.74 0.74 0.76 0.78 0.79 0.80 0.81 0.83 0.87 0.90 0.93 0.95 0.97 0.98 0.97 0.96 0.97 0.97 0.99 1.02 1.05 1.08 1.11 1.15 1.17 1.16 1.19 1.22 1.26 1.29 1.32 1.35 1.36 1.36 1.36 1.36 1.36 1.36 1.37 1.37 1.36 1.36 1.38 1.39 1.37 1.34 1.35 1.36 1.36 1.37 1.37
Wind_Speed
20 19 19 19 18 18 18 17 17 17 17 17 17 17 17 16 15 15 14 13 13 12 12 11 11 11 10 10 10 9 8 8 8 8 7 7 7 6 7 7 7 7 7 7 7 7 7 8 8 8 8 8 8 8 8 8 8 8 8 8 9 10 10 10 11 11 11 11 11 10 10 10 10 10 10 11 11 11 13 13 14 14 14 15 15
19 19 20 20 20 19 19 18 18 18 18 18 18 18 18 17 17 16 15 15 14 13 13 13 12 12 11 11 10 10 9 9 9 8 8 8 8 7 7 7 8 8 8 8 8 8 8 8 8 9 9 9 9 9 9 9 9 9 9 9 9 10 10 11 11 12 12 12 12 11 11 11 11 11 11 12 12 13 13 14 14 15 15 15 15
19 19 19 20 21 20 20 19 19 19 18 18 19 19 18 18 18 17 16 16 15 15 14 14 13 13 12 12 11 11 11 10 9 9 9 9 8 8 8 8 8 8 8 9 9 9 8 8 9 9 9 9 9 10 10 10 10 10 10 10 10 10 11 11 12 12 13 13 12 12 12 12 12 12 12 13 13 14 14 14 15 15 15 15 16
20 20 20 20 20 20 20 20 20 20 19 19 19 19 19 19 19 19 18 17 16 16 15 15 14 14 13 13 12 12 12 11 11 10 10 10 9 9 9 8 8 9 9 9 9 9 9 9 9 9 9 9 9 10 10 10 11 10 10 11 11 11 11 11 12 12 13 13 13 13 13 13 13 13 14 14 14 14 15 15 15 16 16 16 16
20 21 21 20 20 21 21 21 21 21 20 20 20 20 20 19 19 20 19 18 17 17 17 16 15 15 14 14 13 13 13 12 12 11 11 11 10 10 10 9 9 9 9 9 9 10 10 10 10 9 9 10 10 10 10 10 11 11 11 11 10 11 11 11 11 12 12 13 13 13 13 14 14 14 14 15 15 15 15 15 16 16 16 16 15
19 20 21 21 21 21 22 22 21 21 21 21 20 20 20 20 20 20 20 20 19 18 18 17 16 16 15 15 14 14 14 13 13 12 12 11 11 11 10 10 10 10 10 10 10 10 10 10 10 10 10 10 10 10 10 10 11 11 11 11 11 11 12 12 12 13 13 13 13 13 13 14 14 14 14 14 14 15 15 15 15 15 14 14 14
18 19 20 21 21 22 22 23 23 22 21 21 21 20 20 21 21 20 20 20 20 19 19 18 18 17 16 16 16 15 15 14 14 13 13 12 12 11 11 11 11 11 11 11 11 11 11 11 11 11 11 11 11 11 11 11 11 11 12 12 12 12 12 13 13 13 13 13 13 13 13 14 14 14 14 13 14 14 15 14 14 14 13 13 13
18 19 19 21 22 22 22 23 23 23 22 21 22 22 21 21 21 21 20 20 20 20 20 19 19 18 17 17 16 16 16 15 15 15 14 14 13 12 12 12 12 12 12 12 11 11 11 12 12 12 12 12 12 12 12 12 12 12 12 12 12 13 13 13 13 13 13 14 14 13 14 14 13 13 13 13 13 14 14 13 13 13 13 13 14
17 18 18 19 22 23 23 22 22 23 23 22 21 22 22 21 21 21 21 21 20 20 20 20 19 19 19 18 18 17 17 16 16 16 15 15 15 14 14 13 13 13 12 12 12 12 12 12 13 13 13 13 13 13 13 13 13 13 13 13 13 13 14 14 13 13 13 14 14 14 13 13 13 13 13 13 13 14 13 13 13 13 13 14 15
15 16 16 17 19 22 23 23 23 23 24 23 22 21 21 21 22 22 22 22 21 21 21 20 20 19 19 19 19 18 18 17 18 18 17 16 16 15 15 15 14 14 14 13 13 13 13 13 14 14 15 15 15 15 15 15 15 14 14 14 14 14 14 14 14 14 14 14 14 14 14 14 13 13 14 14 14 14 14 14 14 14 14 15 15
14 15 16 16 17 18 20 22 23 23 22 23 23 23 23 22 21 22 22 23 23 22 21 21 21 20 20 19 19 19 19 19 19 19 19 18 18 17 16 16 15 15 15 15 15 15 15 15 15 15 15 16 16 16 17 17 17 16 16 16 16 15 15 15 15 15 15 15 15 15 14 15 14 14 14 14 14 14 14 14 14 14 14 15 15
13 15 16 17 17 18 18 20 21 21 21 20 22 24 26 25 23 21 21 22 23 23 23 22 21 21 21 20 20 20 20 20 20 20 20 20 20 19 18 18 17 17 17 16 16 16 16 16 16 16 16 16 17 17 18 18 18 18 18 18 18 17 17 16 16 16 16 16 16 16 16 16 16 15 15 15 15 15 15 14 15 15 15 16 16
13 14 16 17 17 18 18 19 19 20 20 20 21 23 25 26 25 23 21 20 20 22 22 22 22 22 22 22 21 20 20 21 21 21 21 21 21 21 20 20 19 19 18 18 18 18 18 18 18 18 18 17 17 18 18 18 19 19 19 19 19 19 19 19 18 18 18 17 17 17 17 17 17 17 16 16 16 16 16 16 16 16 16 17 16
13 14 15 17 18 18 18 18 18 19 19 20 21 22 23 24 24 24 23 21 21 21 21 21 22 22 22 23 23 22 21 21 22 22 22 22 22 22 22 22 21 21 20 20 20 19 19 19 19 19 19 19 19 19 19 19 19 19 19 19 19 19 20 20 20 20 20 20 20 20 19 19 19 19 18 18 18 18 18 17 17 17 17 17 17
13 14 15 16 18 19 19 19 19 19 19 19 19 20 21 22 23 22 22 21 22 23 22 22 22 22 22 22 23 23 22 21 21 22 23 23 23 23 23 23 23 22 22 22 21 21 21 21 21 21 21 21 21 21 20 20 20 19 20 20 21 21 21 21 21 21 21 22 22 22 22 22 21 21 20 20 19 19 19 19 19 18 18 18 18
14 14 14 15 16 18 18 19 19 19 19 20 19 19 20 21 21 22 21 21 22 23 23 23 23 23 23 24 24 25 25 24 23 22 22 23 24 24 24 24 24 24 24 24 23 23 23 23 23 23 22 22 22 22 22 22 21 21 21 21 21 22 22 22 22 22 23 23 24 24 24 24 24 23 23 22 21 20 20 20 20 19 19 19 19
15 15 15 15 15 16 18 18 19 19 20 20 20 20 20 20 20 21 21 22 22 23 24 24 24 24 25 25 25 26 26 27 27 26 25 25 24 24 25 25 25 25 25 26 25 25 25 25 24 24 24 24 24 24 24 23 23 23 23 22 22 23 23 23 23 23 24 24 24 25 25 25 25 24 24 23 23 22 21 21 21 20 20 20 20
15 16 16 16 16 16 17 18 18 19 20 20 21 21 21 21 20 20 21 22 22 23 24 24 25 25 25 26 26 26 26 27 27 27 27 27 26 26 27 27 27 27 27 27 27 27 27 27 27 26 26 26 26 26 25 25 25 25 25 25 25 24 24 23 23 23 24 24 24 24 25 24 24 24 24 24 23 23 22 23 22 22 21 21 22
17 17 17 17 17 17 17 18 18 19 20 20 21 21 21 21 21 21 21 21 22 23 24 24 25 25 26 26 26 27 27 26 26 27 28 28 28 28 28 28 29 29 28 28 28 28 28 28 29 28 28 28 28 28 28 27 27 27 27 27 27 27 26 25 25 24 24 24 24 24 24 25 25 25 25 25 25 24 24 24 24 24 23 23 23
19 19 19 19 19 18 18 18 18 19 19 20 21 22 22 23 23 22 22 22 23 23 24 24 24 25 25 26 26 27 27 27 26 27 27 28 29 29 29 29 29 29 29 29 29 29 29 29 29 30 30 30 30 30 30 29 29 29 29 29 29 29 28 27 27 26 26 25 25 25 25 25 25 25 26 26 26 26 26 26 25 25 25 24 24
22 22 21 21 21 20 20 19 19 19 19 20 20 21 22 24 25 25 24 24 24 24 25 25 25 25 25 25 26 26 27 27 27 27 27 28 29 29 29 29 29 29 29 29 29 29 30 29 30 31 31 32 32 32 32 31 31 31 31 31 31 30 30 29 29 28 27 27 27 26 26 26 26 26 26 26 26 26 26 26 26 26 25 25 25
25 25 24 23 23 23 22 22 21 20 20 20 20 21 21 22 23 24 25 25 26 26 27 27 27 27 26 26 26 26 26 26 27 27 28 28 29 29 29 29 29 29 29 29 29 30 30 30 30 30 31 31 31 32 32 32 32 32 32 32 32 32 32 31 30 30 29 29 28 28 27 27 26 26 26 26 26 25 25 25 25 25 25 25 25
28 27 27 26 25 25 25 25 24 23 22 22 21 21 21 21 21 22 23 24 25 26 27 27 28 28 27 27 27 27 26 26 26 27 27 28 29 29 29 30 30 30 30 30 29 30 30 30 29 29 29 30 30 31 31 31 31 32 32 32 32 32 32 32 31 31 30 30 30 29 28 28 27 27 26 26 25 25 24 25 25 25 24 24 25
30 30 29 29 28 28 27 27 27 26 25 25 24 23 22 21 21 21 22 23 23 24 24 25 26 27 27 28 28 28 28 27 26 26 27 27 28 29 29 29 29 30 30 30 30 29 30 30 30 30 30 30 30 31 31 31 31 31 31 32 32 32 31 32 32 32 31 31 30 30 30 29 28 27 27 26 26 25 25 25 25 24 24 24 25
32 31 31 31 31 30 30 30 29 29 28 28 27 25 24 23 22 22 22 22 23 24 24 25 25 26 27 27 28 28 28 28 27 27 27 27 27 28 28 29 29 29 29 29 29 30 29 29 30 30 31 31 31 31 31 31 31 31 31 31 31 31 31 31 31 32 32 31 31 31 30 30 30 29 28 27 27 26 25 25 24 24 24 24 24
33 33 33 32 32 33 32 32 31 31 30 30 29 28 27 26 25 24 23 23 23 24 24 25 26 27 27 27 27 27 28 28 28 28 27 27 27 28 28 29 29 29 28 28 29 30 30 30 30 30 31 31 31 31 31 31 31 31 31 31 31 31 31 31 31 31 32 32 32 31 31 30 30 30 29 29 28 27 26 25 24 24 24 23 23
34 34 34 33 33 33 34 34 33 33 32 31 31 31 30 29 27 26 25 25 24 24 24 25 26 27 28 28 28 28 28 27 27 27 28 28 28 28 28 28 28 28 28 28 28 29 30 31 31 31 31 31 31 31 31 31 31 30 30 30 31 31 31 32 31 31 31 31 31 31 30 30 29 28 28 28 28 27 27 26 26 25 25 24 24
34 35 34 34 33 34 34 34 34 34 33 33 33 33 32 31 30 29 28 28 28 27 26 26 26 27 28 29 29 29 29 28 27 27 27 28 28 28 28 28 28 28 28 28 29 29 30 32 32 32 32 31 31 31 31 31 31 31 30 30 30 30 31 32 32 31 31 30 30 29 29 28 28 28 27 27 27 27 26 26 26 26 26 25 25
35 35 35 34 34 34 35 35 34 35 35 35 35 35 34 34 33 32 31 31 30 29 29 28 28 28 28 29 29 30 30 29 29 29 28 28 28 29 29 29 29 29 30 29 29 29 31 32 32 32 31 31 32 31 30 30 30 30 30 30 30 30 30 31 31 31 31 31 30 30 29 29 28 28 28 27 27 27 26 26 26 26 26 25 25
35 35 35 35 35 35 35 34 34 35 35 36 36 36 36 36 36 35 34 34 33 32 31 31 30 29 29 29 29 30 31 31 31 32 32 32 32 32 32 32 32 32 31 30 30 30 31 32 32 32 32 31 31 30 30 29 29 30 30 30 30 30 30 30 31 31 31 31 31 31 31 30 30 29 29 28 28 28 27 27 27 26 26 26 26
35 35 36 35 35 34 34 34 35 35 36 37 37 37 37 37 37 37 37 36 35 35 34 33 33 32 31 30 30 30 31 32 32 33 33 33 33 34 34 34 34 34 33 32 31 30 31 32 32 32 32 32 31 30 29 29 29 29 29 30 30 30 30 30 31 31 31 31 31 31 31 31 31 30 30 30 29 29 28 28 28 27 27 27 27
35 35 35 35 35 35 35 35 36 36 36 37 37 37 37 37 38 38 38 38 37 37 36 36 35 34 33 33 32 31 31 32 32 33 33 34 34 34 34 35 35 35 34 33 32 31 32 32 32 33 33 33 32 31 30 30 30 30 30 30 31 32 32 32 32 32 32 32 32 32 32 31 32 32 31 31 30 29 29 28 28 28 28 28 28
34 34 34 35 35 36 36 36 36 36 37 37 37 37 37 38 38 39 39 39 39 39 38 38 37 36 35 35 34 33 33 33 33 34 34 35 35 36 35 35 35 35 35 34 34 33 33 33 33 33 34 34 33 32 32 31 31 31 31 31 31 32 32 33 33 34 34 35 34 33 32 31 31 31 31 31 31 31 30 30 29 29 29 29 28
34 34 35 35 35 35 36 36 37 37 37 37 37 38 38 38 39 40 40 39 39 39 39 39 38 38 37 36 36 36 35 34 34 35 35 35 36 36 36 36 36 36 36 36 36 35 34 34 33 34 34 34 34 33 33 32 32 31 30 30 30 31 32 33 33 34 36 37 37 35 33 31 30 31 31 31 31 31 31 31 31 30 30 30 30
34 34 35 35 35 35 35 36 37 37 37 37 38 39 39 40 41 41 41 40 40 40 39 39 39 39 39 38 38 38 37 36 36 36 36 36 36 37 37 37 37 37 36 36 36 36 35 35 34 34 34 34 34 33 33 32 31 30 30 29 29 30 32 33 34 35 36 37 37 36 35 33 32 31 32 32 31 31 31 31 31 31 31 31 31
35 35 35 35 36 36 36 37 37 38 38 39 40 40 40 40 41 41 41 41 41 41 41 40 40 40 40 40 39 39 38 37 37 37 37 37 37 36 36 37 37 37 37 36 36 36 36 36 35 35 34 34 33 32 31 31 30 31 32 32 31 31 32 32 34 35 36 37 37 37 35 34 33 33 33 33 33 32 32 32 32 32 32 31 31
36 36 36 37 37 38 38 38 39 39 40 40 40 40 40 41 41 41 42 42 42 42 42 41 41 41 40 40 40 39 38 38 38 39 39 38 37 36 37 37 37 38 38 37 37 37 37 37 37 36 35 35 34 34 34 34 33 33 34 35 35 35 34 34 35 37 38 39 39 37 35 34 34 35 35 35 34 33 33 32 32 32 32 32 31
36 36 37 37 38 39 39 39 39 40 40 41 41 41 41 42 42 42 42 43 43 43 42 42 42 42 41 41 40 40 40 39 39 39 38 38 38 37 37 37 37 38 38 38 38 37 37 38 38 38 37 37 36 36 37 38 37 36 36 37 37 37 37 37 38 39 40 40 39 38 35 34 34 35 34 34 34 33 33 33 33 32 32 31 31
36 37 37 38 38 38 39 39 40 41 41 41 42 42 42 42 43 43 43 43 43 43 43 42 42 42 42 42 42 41 40 40 40 39 39 38 38 38 38 38 38 37 38 38 38 37 37 37 37 38 38 38 38 38 39 39 40 39 38 38 37 37 38 38 38 39 39 39 38 37 34 33 32 32 31 32 33 34 34 34 34 34 33 32 32
36 37 38 38 39 39 40 40 41 41 41 42 42 42 42 43 43 44 44 44 44 44 43 43 43 43 43 43 42 42 41 41 41 40 40 40 39 39 39 39 39 38 38 38 38 38 38 37 37 37 38 38 38 38 39 39 40 40 39 39 38 38 38 38 37 37 37 37 37 36 34 33 32 31 31 32 33 35 35 35 35 35 35 34 34
36 37 38 38 39 39 40 40 41 41 41 42 42 42 42 43 43 44 44 44 45 44 44 44 44 44 44 44 43 42 42 43 42 42 41 41 40 40 39 39 39 40 40 40 40 39 40 40 39 39 39 39 39 39 39 39 39 39 39 39 39 38 38 38 37 37 37 38 38 37 35 35 34 34 34 34 34 35 36 35 35 36 36 37 37
36 37 38 38 39 39 40 40 41 41 42 42 42 42 43 43 43 44 44 45 45 45 45 45 45 45 45 44 44 43 43 44 44 43 42 42 41 41 40 40 40 40 40 41 41 41 41 42 42 41 40 40 40 41 40 40 39 39 39 39 39 38 38 37 36 36 36 36 36 36 35 35 36 36 36 36 36 36 36 36 37 37 38 38 38
35 36 37 38 39 39 40 41 41 42 42 42 42 42 43 43 43 44 44 45 45 45 45 45 45 46 46 45 45 44 44 44 44 44 43 43 43 42 42 41 41 41 40 41 41 42 42 43 43 43 42 41 41 41 41 41 41 40 40 40 39 39 39 38 36 35 35 35 35 35 35 35 35 36 36 36 35 36 36 37 37 38 37 37 36
34 35 35 36 38 38 39 40 41 42 42 43 43 43 43 43 43 44 44 44 44 45 45 45 45 46 46 46 46 45 45 44 44 44 44 44 44 43 43 43 42 42 41 41 41 41 42 42 43 43 43 43 42 42 42 42 42 42 41 41 41 40 39 39 38 37 37 37 37 37 37 36 36 35 35 35 34 35 36 36 36 36 36 36 36
34 35 35 36 37 38 38 39 40 41 42 42 43 43 43 43 43 43 43 44 44 44 44 45 45 45 45 46 46 46 46 46 46 45 45 45 45 45 44 44 43 43 42 42 41 41 42 42 43 43 44 44 44 44 43 43 43 43 43 42 42 41 41 40 40 40 40 40 40 40 40 39 39 38 38 37 37 36 36 36 35 35 36 36 37
35 35 36 36 36 37 37 38 39 39 40 41 42 43 43 43 43 43 43 43 44 44 44 45 45 45 45 46 46 46 46 46 46 46 46 45 45 45 45 45 45 44 44 43 42 42 41 42 42 43 43 44 45 45 45 44 44 43 43 43 42 42 42 42 42 42 42 42 42 42 42 42 42 41 41 41 40 40 40 39 38 38 38 37 37
35 36 36 36 36 36 37 37 37 38 39 39 40 41 42 42 43 43 43 43 44 44 44 44 44 44 44 45 46 46 46 47 47 47 47 47 46 45 45 45 45 45 45 44 44 43 42 41 41 42 42 43 43 44 44 44 44 44 44 44 43 43 43 43 43 43 43 43 43 43 43 43 43 43 43 43 43 43 43 43 42 42 41 40 40
35 35 35 35 36 36 36 36 36 37 37 38 38 39 40 40 41 41 42 42 43 43 43 44 44 44 44 45 46 46 47 47 47 47 47 47 46 46 45 45 45 45 45 45 45 44 43 42 42 41 41 42 42 42 43 43 43 43 43 43 44 44 44 44 45 45 45 45 44 45 44 44 44 44 44 44 44 44 45 45 45 44 44 43 43
34 35 35 35 35 35 35 35 36 36 36 36 37 38 38 38 39 39 40 41 42 42 43 43 43 44 44 44 45 46 46 47 47 47 47 47 46 46 45 45 45 45 45 45 45 44 44 43 42 42 42 41 41 41 42 42 42 42 43 43 44 44 44 45 45 45 46 46 46 46 46 46 45 45 45 45 45 45 46 46 46 45 45 45 45
33 33 34 34 34 34 35 35 35 35 35 35 36 36 36 37 37 37 38 39 40 40 41 42 42 42 43 44 44 45 46 46 46 47 46 46 46 46 46 45 45 44 44 44 44 44 44 43 43 42 42 41 41 41 41 42 42 42 42 43 43 44 44 44 44 44 44 45 45 45 45 45 45 45 45 45 45 45 46 46 46 46 45 45 45
31 32 32 32 33 33 34 34 34 34 34 35 35 35 35 35 35 36 36 37 37 38 39 40 40 41 42 42 43 44 45 45 46 46 46 46 46 46 45 45 45 44 44 43 43 43 43 43 42 42 42 41 41 41 42 42 42 42 42 43 43 43 43 43 43 43 43 43 43 43 44 44 44 44 44 44 44 44 44 45 45 45 45 45 45
Wind_Direction
217 217 217 219 218 219 220 220 219 218 217 216 216 216 216 216 216 217 217 216 215 214 214 214 215 215 216 216 216 216 216 214 212 213 212 213 214 213 214 215 215 217 218 218 218 219 222 224 225 226 225 227 226 223 224 228 229 226 225 229 231 231 232 233 237 241 242 245 252 255 259 265 266 269 275 281 286 290 296 303 305 304 303 303 303
220 220 219 220 220 220 221 222 221 221 221 219 218 218 219 219 219 219 220 220 219 218 218 218 218 219 219 219 218 218 220 221 219 218 218 217 219 221 222 221 220 221 224 225 225 225 227 228 230 231 231 231 230 228 230 232 234 235 234 234 235 236 237 238 241 244 246 249 251 254 259 264 267 269 275 283 288 291 296 301 305 307 305 302 304
224 225 223 222 222 222 222 222 222 223 223 222 222 221 221 221 221 221 222 222 222 222 222 222 221 221 222 221 222 220 221 224 225 224 224 223 223 225 226 226 226 227 228 230 231 231 231 232 234 236 235 235 234 233 234 235 237 240 240 241 243 242 241 243 245 248 251 253 254 257 261 266 268 272 278 284 288 291 295 298 302 306 306 304 305
225 227 227 225 224 224 224 224 223 223 224 224 224 224 224 223 222 223 223 224 225 224 225 225 224 224 223 223 223 224 223 225 227 228 228 229 229 229 229 230 231 232 232 233 235 235 236 237 238 239 237 238 239 239 238 238 239 242 243 245 246 246 246 247 249 251 253 255 257 259 263 267 270 274 279 283 286 288 292 296 299 302 303 304 306
225 227 229 229 229 228 227 227 226 225 225 225 226 226 226 226 225 225 225 225 226 226 226 227 226 225 225 224 224 226 226 227 229 231 231 232 233 234 234 233 234 236 236 237 238 238 239 240 241 242 241 240 242 243 244 243 242 244 246 246 246 247 248 249 250 253 255 257 259 261 264 268 271 275 279 282 286 289 291 295 298 299 300 302 305
227 228 229 230 231 231 230 229 229 228 227 227 227 227 227 229 228 227 227 227 228 228 227 228 228 227 227 227 227 227 228 229 231 233 234 235 236 237 238 238 238 239 239 239 240 240 241 242 243 244 244 244 244 246 248 248 247 247 248 248 249 248 249 250 251 254 257 259 261 263 265 268 272 276 279 281 284 287 291 294 298 300 300 302 305
228 229 231 231 232 233 232 230 231 232 231 230 229 229 228 229 230 229 228 228 229 230 230 229 229 229 228 228 229 229 230 231 233 234 235 236 238 239 241 241 242 242 243 243 243 243 243 244 245 246 246 247 248 249 250 251 252 251 250 251 251 251 251 253 254 256 258 260 262 264 266 269 272 275 278 279 281 285 289 294 297 300 302 304 306
231 232 234 234 233 234 234 233 234 234 234 234 233 231 231 231 231 231 230 229 229 231 232 231 230 230 231 230 230 231 232 233 234 236 237 238 239 240 242 244 244 245 246 246 246 246 246 246 247 248 249 251 251 251 252 253 255 255 255 253 253 253 253 254 256 257 259 261 263 265 267 270 271 273 276 280 283 286 289 292 295 298 300 302 305
233 234 236 237 236 236 236 238 237 234 236 239 236 233 234 234 233 233 233 231 230 231 232 233 232 231 231 233 233 233 234 236 237 238 239 240 241 241 242 244 246 246 247 247 248 248 248 248 249 250 250 251 253 254 254 254 255 257 258 257 256 256 256 256 257 258 259 261 263 265 268 269 271 273 277 281 284 287 289 289 291 294 297 301 304
236 236 238 240 240 238 237 238 238 236 236 239 238 235 236 237 236 235 234 233 233 232 232 233 234 234 232 233 235 236 237 238 239 239 240 241 243 243 243 245 246 247 247 248 249 250 250 251 252 253 252 252 253 255 256 256 257 257 258 258 258 258 258 258 258 259 259 261 262 264 266 268 271 274 278 281 284 286 288 289 290 293 296 300 303
241 241 241 242 241 239 238 239 242 243 241 240 240 238 238 241 240 238 237 236 235 235 233 233 234 236 236 234 234 236 239 240 239 240 241 242 243 245 245 245 246 247 248 249 249 251 252 253 254 255 256 255 254 255 256 257 259 259 259 258 258 258 259 259 260 260 260 261 262 264 266 269 272 275 278 282 284 286 288 290 291 293 295 298 302
246 244 244 244 243 242 243 244 248 250 247 244 243 241 242 245 245 241 240 239 237 236 235 234 234 236 238 238 236 236 238 240 240 241 242 242 243 245 246 246 247 247 249 250 251 252 253 255 256 257 258 258 257 256 255 257 259 260 260 259 258 258 258 259 260 260 261 263 263 265 266 269 272 274 277 280 283 285 287 288 290 292 293 296 300
248 246 245 244 244 245 246 247 250 252 250 248 247 245 246 248 247 245 245 243 240 238 238 237 236 237 238 240 240 240 240 240 239 241 243 243 244 244 246 247 247 247 249 250 252 253 254 256 257 258 260 261 261 260 258 258 258 259 260 261 260 259 258 258 259 260 262 264 265 266 267 269 271 273 275 277 280 282 283 285 287 289 292 295 298
252 250 247 244 244 246 248 249 251 253 252 250 249 247 247 248 248 249 250 248 243 242 242 241 240 240 240 241 243 245 245 244 241 241 242 243 244 245 246 247 248 248 249 250 252 253 254 256 257 259 260 261 262 263 262 260 259 259 259 261 261 261 260 260 260 260 261 263 265 266 268 269 270 272 274 275 277 279 281 283 286 287 290 293 296
253 255 253 250 247 248 249 251 252 253 253 252 250 248 247 247 248 250 251 249 244 242 244 244 243 243 243 243 244 246 247 249 248 246 245 244 244 246 247 248 249 250 250 251 253 254 255 256 257 259 260 260 261 262 263 262 261 259 257 258 260 262 262 261 261 262 262 263 264 266 267 268 270 271 273 274 275 277 279 282 284 286 289 291 293
252 254 257 258 255 253 252 252 253 253 254 254 253 251 250 249 248 248 247 247 244 242 244 245 245 245 245 245 246 246 247 249 250 251 251 249 247 248 248 249 250 252 253 253 254 255 255 256 257 258 259 260 260 260 260 261 261 260 258 257 259 261 263 264 263 263 264 264 264 265 267 268 269 270 271 272 273 276 279 280 282 283 285 287 290
256 256 258 260 259 257 256 255 254 254 255 255 254 254 253 252 250 249 248 247 246 246 246 247 247 247 248 248 248 249 249 249 249 250 251 252 252 252 251 251 251 253 255 256 256 257 257 257 258 258 259 259 259 259 259 260 260 260 259 259 259 260 262 264 265 264 265 265 265 265 266 267 267 268 269 269 271 274 276 277 279 281 281 284 287
261 260 261 261 260 259 258 257 256 255 255 255 255 254 254 253 252 251 251 251 250 248 248 248 247 247 248 249 250 250 251 251 251 250 250 251 252 253 253 252 253 254 256 257 258 259 259 259 259 259 259 259 258 258 258 258 259 259 259 260 260 260 260 262 264 265 265 266 266 266 266 267 267 268 268 269 270 272 273 275 278 279 279 281 284
262 263 263 264 263 261 260 258 258 257 256 256 255 254 253 253 253 253 254 253 252 250 250 249 249 248 249 250 250 251 252 252 251 251 251 250 252 253 253 252 253 254 255 257 258 259 260 261 260 260 259 259 259 258 257 258 259 259 259 259 260 260 261 262 263 265 265 266 266 266 267 267 267 267 268 268 269 270 272 274 277 278 278 279 282
261 262 263 264 264 264 263 261 260 260 259 257 257 256 255 254 254 255 255 255 254 252 252 251 251 251 251 251 251 251 253 254 253 252 252 251 252 253 254 253 253 254 254 256 258 259 260 260 261 260 260 259 259 259 258 258 258 259 259 258 258 260 262 262 262 263 264 265 266 266 266 267 267 266 267 268 269 270 271 273 275 275 276 278 280
259 261 262 263 263 264 264 264 263 262 261 259 258 258 257 257 257 255 256 256 255 253 253 253 253 252 253 253 252 253 253 253 253 253 253 253 253 254 255 255 255 255 255 256 257 258 259 260 261 260 260 259 259 259 259 258 258 258 258 258 259 260 261 261 261 262 263 265 266 266 266 266 266 266 267 268 270 271 271 272 272 273 274 275 277
258 260 261 261 261 262 263 264 264 263 261 261 261 261 260 260 259 257 257 258 257 254 253 253 253 253 253 253 254 255 254 254 254 254 254 254 255 255 256 257 256 256 256 257 258 258 259 260 261 261 260 259 259 260 260 259 259 259 259 259 259 260 260 260 261 261 262 263 264 264 265 265 265 266 267 268 270 271 271 272 272 272 272 273 274
257 259 260 260 260 260 260 261 263 263 262 262 263 264 263 262 262 261 259 259 260 258 256 255 254 254 254 253 254 254 255 255 255 255 255 255 255 256 256 257 258 257 258 258 259 260 260 260 261 262 261 259 259 260 260 259 259 259 259 259 259 259 259 259 260 260 261 262 262 262 263 264 264 265 266 267 268 269 270 271 271 271 271 272 272
256 257 259 260 260 260 259 259 260 260 261 262 263 264 265 264 263 263 262 260 260 260 258 255 254 254 254 254 254 253 254 255 256 256 256 255 256 256 256 257 258 259 259 259 260 261 261 260 261 262 262 261 261 261 261 260 259 259 259 258 258 258 258 258 258 259 259 260 260 261 262 262 263 264 265 266 267 268 269 270 270 270 271 272 272
256 257 259 259 260 260 259 258 257 257 259 261 261 262 264 264 264 264 264 263 261 259 258 257 257 256 256 256 255 254 254 255 255 256 256 255 256 256 256 257 258 259 260 260 260 261 262 262 262 263 263 262 262 262 262 261 260 260 259 257 257 257 257 256 257 257 258 258 259 260 261 262 262 263 264 265 266 267 268 269 269 270 270 271 272
257 257 258 258 259 260 260 258 257 257 258 258 259 260 262 262 263 264 264 264 262 261 261 261 260 260 259 258 258 257 256 256 256 255 256 256 256 257 257 257 258 259 259 260 260 261 263 264 265 265 265 264 262 261 261 262 262 262 259 257 256 256 255 256 256 256 257 258 259 260 260 261 262 263 263 264 264 265 266 267 268 269 269 270 271
258 258 258 258 259 260 259 258 258 258 257 257 258 260 261 260 261 261 263 263 263 263 263 263 262 261 261 260 260 259 259 258 258 256 256 257 258 258 258 258 258 258 259 259 260 262 263 265 266 266 265 264 263 262 262 262 262 261 259 257 256 255 254 255 256 256 257 258 259 260 260 261 261 261 261 262 263 264 264 265 266 267 269 270 271
259 259 259 259 259 259 258 258 258 258 258 258 259 259 260 260 260 260 261 262 263 264 264 264 263 262 261 261 260 260 259 258 258 258 258 259 259 258 258 258 259 259 260 260 262 264 265 266 266 265 264 263 263 263 262 261 260 259 258 257 256 255 255 254 255 255 256 257 258 259 259 259 259 259 259 260 261 262 263 264 265 266 267 268 269
260 260 260 260 260 259 258 258 259 259 260 259 259 258 259 260 260 260 259 260 261 262 263 264 263 263 262 262 261 260 258 258 258 258 259 259 260 260 259 259 260 260 261 262 263 264 265 265 265 264 264 262 261 261 261 260 259 258 257 256 256 255 255 254 253 254 255 256 257 258 258 258 258 258 258 258 259 260 261 262 263 264 265 265 266
261 260 260 260 260 259 259 260 260 260 260 260 259 259 259 260 260 260 259 259 259 260 261 262 262 263 262 261 261 260 259 259 259 260 260 259 260 260 260 261 262 262 262 263 264 265 265 264 263 263 262 261 259 258 258 259 259 258 256 255 254 254 254 254 254 254 254 255 256 256 256 256 256 257 257 257 258 259 259 260 261 262 262 263 264
261 261 261 261 261 260 261 261 261 261 260 260 260 260 260 260 259 259 259 258 259 259 260 260 260 261 261 260 260 261 261 261 260 260 260 260 260 260 261 261 262 262 263 262 263 263 264 264 263 262 262 261 259 256 256 258 258 258 257 256 255 255 255 255 254 254 254 254 255 256 256 255 255 256 256 256 257 258 258 259 259 260 261 262 263
263 262 261 261 262 262 262 263 262 262 261 260 260 260 261 261 260 260 259 258 258 259 259 259 259 260 259 258 258 260 261 262 262 262 261 260 260 260 261 261 261 261 261 261 260 261 262 263 263 262 261 261 259 257 257 256 255 255 258 258 257 256 255 255 256 256 255 254 255 255 255 255 255 255 256 256 257 257 258 258 258 259 259 261 262
263 262 261 261 262 262 263 263 263 262 262 261 261 261 261 261 261 260 259 259 258 258 259 259 259 259 258 257 257 259 260 261 262 263 263 262 261 261 261 261 260 259 259 259 259 259 260 261 262 262 262 261 260 259 258 255 254 254 257 258 258 257 256 256 257 256 256 255 255 254 254 255 255 256 256 256 256 257 257 258 258 258 259 260 261
262 262 262 262 262 263 263 263 263 263 263 262 262 261 261 261 261 260 260 260 259 259 258 258 258 258 258 258 258 259 260 260 260 262 263 263 263 262 261 260 260 259 258 258 258 258 258 259 260 261 262 262 262 260 258 255 254 255 256 256 256 257 257 257 256 256 255 255 254 252 252 253 254 254 255 255 256 256 257 257 258 258 259 260 261
263 262 262 263 263 263 263 264 264 264 263 263 262 261 261 261 261 261 260 260 259 259 258 257 257 257 258 258 258 258 259 260 260 261 262 263 263 262 261 260 260 259 258 258 257 258 257 257 257 259 261 262 263 261 257 253 251 253 254 256 257 258 258 258 257 256 255 253 251 250 251 252 253 253 254 254 254 255 256 257 257 258 258 259 261
264 264 264 264 263 263 264 264 264 264 263 263 263 263 262 262 261 261 260 259 259 259 258 258 257 256 257 258 258 257 258 261 262 261 262 263 262 261 261 260 259 259 258 257 257 257 257 256 256 257 258 259 261 260 255 250 250 253 255 257 258 259 258 258 258 257 254 251 249 250 251 252 253 254 255 254 254 254 255 256 256 257 257 258 260
266 266 266 265 265 264 264 264 264 264 264 264 264 263 262 261 261 261 261 260 259 259 258 258 258 257 256 256 256 256 258 260 262 262 262 262 261 260 260 260 259 259 258 257 258 258 257 256 256 256 255 256 258 258 254 252 254 258 259 259 259 259 259 260 260 258 254 251 251 252 253 254 254 255 255 255 254 254 255 255 256 257 257 257 258
267 267 267 267 267 266 265 265 265 264 264 264 263 263 262 262 261 261 260 260 260 259 259 258 258 258 257 255 255 256 258 260 260 261 261 261 260 259 259 259 259 259 258 258 258 258 258 258 257 256 256 256 256 257 256 254 256 259 261 261 261 261 261 262 263 260 257 254 253 254 256 257 257 257 257 258 258 258 259 259 259 259 259 259 259
267 267 268 268 268 267 267 266 266 265 264 264 263 262 262 262 261 261 260 261 261 260 260 259 259 259 258 256 255 257 258 259 259 259 260 260 260 260 259 258 259 259 259 259 259 259 259 259 258 257 257 257 257 258 257 256 257 259 261 262 263 263 263 264 264 263 261 260 259 259 260 261 262 264 265 266 267 267 267 267 267 267 267 266 265
268 268 268 268 268 267 267 266 266 266 265 264 263 263 262 262 262 261 261 261 261 261 261 260 259 259 258 257 257 257 257 258 258 258 258 258 259 259 259 259 258 258 259 259 259 259 259 259 258 258 258 258 258 259 259 259 259 260 261 262 264 264 265 266 266 267 266 266 266 266 267 268 270 272 273 273 271 270 269 269 269 270 271 271 270
269 269 269 269 268 268 267 267 266 266 265 265 264 263 263 262 262 261 261 260 261 261 261 260 259 259 258 257 257 257 258 258 258 257 257 257 258 258 259 259 259 258 258 258 258 258 258 258 258 258 258 258 258 258 259 260 261 261 262 263 264 265 266 266 267 268 267 268 269 270 271 271 271 272 273 273 272 271 269 268 269 272 273 273 272
271 270 270 269 269 269 268 267 266 266 265 265 265 264 263 263 262 261 261 260 260 261 261 260 259 259 258 257 256 257 258 258 258 257 256 256 257 258 258 259 259 259 259 258 258 257 258 258 258 257 258 259 259 258 259 260 261 262 262 263 264 265 266 267 268 268 269 270 271 273 273 272 272 272 272 272 272 272 270 269 271 274 275 274 272
272 271 271 270 269 269 269 268 267 266 265 265 264 264 264 263 262 261 261 260 260 260 260 260 259 259 258 257 257 257 257 257 257 257 256 256 257 257 257 257 258 258 259 259 258 258 258 258 257 256 257 258 259 259 258 259 260 260 261 262 264 265 266 266 267 267 269 271 273 274 275 275 274 273 272 271 271 271 271 271 272 273 273 273 273
273 273 272 271 270 269 269 268 268 267 266 265 264 264 264 263 262 261 261 260 260 260 260 260 259 259 258 258 257 256 256 256 256 257 257 257 257 257 257 257 257 257 257 258 258 258 258 257 257 256 256 257 258 259 259 258 259 259 260 261 262 264 264 265 265 266 268 270 271 273 274 274 274 273 273 272 272 273 273 272 272 272 272 272 274
275 274 273 272 271 270 269 269 268 267 267 266 265 264 263 263 262 261 260 260 260 260 260 260 259 259 258 258 257 256 256 256 256 257 257 257 256 256 257 257 257 256 256 256 257 257 257 257 257 257 256 256 257 258 259 259 259 259 259 260 261 262 263 264 264 266 268 269 270 271 272 273 273 272 272 272 272 272 272 272 273 273 273 273 273
276 275 274 273 272 271 270 269 268 268 267 266 265 264 263 263 262 261 260 260 260 260 260 260 259 258 258 257 256 256 256 256 256 257 257 257 257 256 256 257 257 257 256 256 256 256 256 256 257 257 257 256 256 257 258 259 259 259 258 259 260 261 262 263 264 265 267 268 269 270 271 271 272 272 272 272 271 271 271 271 272 273 274 274 274
276 275 274 274 273 272 271 270 269 268 268 267 266 265 264 263 262 261 260 260 260 260 260 259 259 258 257 256 255 255 255 256 256 257 257 257 257 256 256 256 257 257 256 256 256 255 256 256 256 257 257 257 257 257 257 258 258 258 258 258 259 260 262 263 264 265 266 268 269 269 270 271 271 271 271 271 271 271 270 271 272 272 273 273 274
276 274 274 274 273 272 271 270 270 269 268 267 266 265 264 263 262 261 260 260 260 260 260 259 259 258 257 256 255 255 255 255 256 256 256 257 257 257 257 256 256 256 256 256 256 256 255 256 256 256 256 257 257 258 257 257 258 258 258 259 260 261 263 263 264 264 265 267 268 269 270 271 271 271 271 271 271 270 270 270 271 271 272 273 273
275 274 273 273 273 272 272 271 270 269 268 267 266 265 264 263 262 261 261 260 260 260 260 260 259 259 258 257 256 255 255 255 255 255 255 256 256 257 257 256 256 256 256 256 256 256 256 256 256 256 256 256 257 257 257 257 257 258 259 260 262 263 264 264 264 265 265 266 267 268 269 270 271 271 271 271 270 269 269 269 270 270 271 272 273
275 274 274 273 273 273 272 271 270 269 268 267 266 265 264 263 262 261 261 260 260 260 260 260 260 259 259 258 257 256 256 255 255 255 254 255 255 256 257 256 256 255 255 255 256 256 256 256 256 256 256 256 256 256 256 256 256 257 259 261 263 264 265 265 265 265 266 266 267 268 269 269 270 270 271 270 270 269 269 269 269 270 270 271 272
276 275 274 274 273 273 272 272 270 269 268 267 266 265 264 262 262 261 260 260 260 260 260 260 260 260 259 258 257 257 256 256 255 255 254 254 255 255 255 256 256 256 255 254 254 255 255 255 255 255 256 257 257 256 255 255 256 257 259 260 262 263 264 265 265 266 266 267 266 267 267 268 269 270 270 270 270 270 269 268 268 269 270 271 272